Location: Unspecified
(0.0000°N, 0.0000°E)
Time: 16:19:28
(UTC+00:00)

Courier 1B Rocket - Pass Details

Date: 27 November 2019
Orbit: 920 x 1202 km, 28.2° (Epoch: 12 December)

Event Time Altitude Azimuth Distance (km) Brightness Sun altitude
Rises 04:20:10 0° 210° (SSW) 3,829 8.0 -20.3°
Reaches altitude 10° 04:25:49 10° 174° (S) 2,787 7.7 -19.0°
Maximum altitude 04:27:19 11° 161° (SSE) 2,710 7.9 -18.6°
Drops below altitude 10° 04:28:48 10° 148° (SSE) 2,743 8.1 -18.3°
Sets 04:34:08 0° 112° (ESE) 3,621 9.8 -17.1°
